Flag for Gambia Weather past 2 weeks in Serekunda, Gambia

Now
77 °F

Broken clouds.


Feels Like: 78 °F
Forecast: 76 / 84 °F
Wind: No wind

Location: Banjul / Yundum

Current Time: Jul 28, 2015 at 9:31:39 AM

Latest Report: Jul 28, 2015 at 9:00 AM


Visibility: N/A

Pressure: 29.86 "Hg

Humidity: 94%

Dew point: 75 °F

Location of SerekundaLocation

Historic Weather in Serekunda — Graph

°F

Serekunda temperature yesterday

Maximum temperature yesterday: 88 °F (at 4:00 PM)
Minimum temperature yesterday: 77 °F (at 6:00 AM)
Average temperature yesterday: 81 °F

Past Weeks' High & Low Weather Summary

 TemperatureHumidityPressure
High91 °F (Jul 13, 2:00 PM)100% (Jul 19, 10:00 AM)32.90 "Hg (Jul 19, 10:00 AM)
Low70 °F (Jul 19, 7:00 AM)49% (Jul 13, 2:00 PM)29.77 "Hg (Jul 16, 5:00 PM)
Average82 °F79%29.89 "Hg
* Reported Jul 13 8:00 AM — Jul 28 8:00 AM, Serekunda, Weather by CustomWeather, © 2015

Note: Actual official high and low records may vary slightly from our data, if they occured in-between our weather recording intervals... More about our weather records

Advertising

Serekunda weather history for previous 24 hours

 ConditionsComfort  
Time TempWeatherWind HumidityBarometerVisibility
8:00 AM
Tue, Jul 28
77 °FBroken clouds.12 mph94%29.86 "HgN/A
7:00 AM77 °FBroken clouds.No wind100%29.86 "HgN/A
6:00 AM77 °FWarm.No wind100%29.89 "HgN/A
5:00 AM77 °FWarm.No wind100%29.86 "HgN/A
4:00 AM77 °FPartly cloudy.No wind100%29.83 "HgN/A
3:00 AM77 °FPartly cloudy.No wind100%29.80 "HgN/A
2:00 AM79 °FPartly cloudy.7 mph94%29.86 "HgN/A
1:00 AM79 °FPartly cloudy.No wind94%29.86 "HgN/A
12:00 AM81 °FPartly cloudy.No wind89%29.89 "HgN/A
11:00 PM
Mon, Jul 27
79 °FPassing clouds.No wind94%29.89 "HgN/A
10:00 PM79 °FPartly cloudy.No wind94%29.86 "HgN/A
9:00 PM79 °FPartly cloudy.No wind94%29.86 "HgN/A
8:00 PM79 °FPartly cloudy.No wind94%29.83 "HgN/A
7:40 PM81 °FThunderstorms. Partly cloudy.No wind89%29.86 "HgN/A
7:00 PM81 °FThunderstorms. Broken clouds.7 mph89%29.86 "Hg6 mi
6:00 PM79 °FThunderstorms. Partly sunny.6 mph100%29.83 "Hg6 mi
5:00 PM84 °FThunderstorms. Partly sunny.2 mph74%29.83 "HgN/A
4:00 PM88 °FThunderstorms. Partly sunny.10 mph62%29.83 "HgN/A
3:00 PM86 °FLight rain. Broken clouds.10 mph66%29.83 "Hg6 mi
2:00 PM86 °FPartly sunny.14 mph70%29.86 "HgN/A
1:00 PM84 °FPartly sunny.12 mph79%29.89 "HgN/A
12:00 PM84 °FPartly sunny.10 mph79%29.89 "HgN/A
11:00 AM84 °FPartly sunny.10 mph79%29.89 "HgN/A
10:00 AM84 °FBroken clouds.No wind74%29.89 "HgN/A
9:00 AM82 °FBroken clouds.6 mph79%29.89 "HgN/A
Weather by CustomWeather, © 2015

See weather overviewHow to use our weather pages